Weather History for Glenwood, MN

Change the Weather History Date:

Sunday, November 9, 2014

  Actual Average Record
Temperature  
Mean Temperature 30 °F -  
Max Temperature 35 °F 41 °F 69 °F (1999)
Min Temperature 26 °F 25 °F 7 °F (1950)
Degree Days  
Heating Degree Days 34    
Moisture  
Dew Point 20 °F    
Average Humidity 67    
Maximum Humidity 93    
Minimum Humidity 38    
Precipitation  
Precipitation 0.00 in - - ()
Sea Level Pressure  
Sea Level Pressure 29.78 in    
Wind  
Wind Speed 7 mph (NNW)    
Max Wind Speed 13 mph    
Max Gust Speed -    
Visibility 10 miles    
Events Snow    
Averages and records for this station are not official NWS values.
T = Trace of Precipitation, MM = Missing Value Source: NWS Daily Summary

Daily Weather History Graph

Daily Weather History Graph

Search for Another Location

Airport:

Trip Planner

Search our weather history database for the weather conditions in past years. The results will help you decide how hot, cold, wet, or windy it might be!

Date:

Astronomy

Nov. 09, 2014 Rise Set
Actual Time 7:12 AM CST 4:57 PM CST
Civil Twilight 6:40 AM CST 5:28 PM CST
Nautical Twilight 6:05 AM CST 6:04 PM CST
Astronomical Twilight 5:30 AM CST 6:39 PM CST
Moon 7:28 PM CST (11/9) 9:48 AM CST (11/9)
Length of Visible Light 10h 48m
Length of Day
9h 44m
Waning Gibbous, 91% of the Moon is Illuminated
Nov 9
Waning Gibbous
Nov 14
Last Quarter
Nov 22
New
Nov 29
First Quarter
Dec 6
Full

Hourly Weather History & Observations

Time (CST) Temp. Windchill Dew Point Humidity Pressure Visibility Wind Dir Wind Speed Gust Speed Precip Events Conditions
12:13 AM 35.6 °F 29.2 °F 28.4 °F 75% 29.78 in 10.0 mi WSW 8.1 mph - N/A   Scattered Clouds
12:33 AM 35.6 °F 29.9 °F 30.2 °F 81% 29.76 in 10.0 mi WSW 6.9 mph - N/A   Scattered Clouds
12:53 AM 35.6 °F 29.9 °F 30.2 °F 81% 29.75 in 10.0 mi WSW 6.9 mph - N/A   Scattered Clouds
1:13 AM 35.6 °F 30.7 °F 30.2 °F 81% 29.74 in 10.0 mi WSW 5.8 mph - N/A   Mostly Cloudy
1:33 AM 35.6 °F 29.9 °F 30.2 °F 81% 29.75 in 10.0 mi WSW 6.9 mph - N/A   Mostly Cloudy
1:53 AM 35.6 °F 29.9 °F 30.2 °F 81% 29.75 in 10.0 mi West 6.9 mph - N/A   Scattered Clouds
2:13 AM 35.6 °F 30.7 °F 30.2 °F 81% 29.74 in 10.0 mi West 5.8 mph - N/A   Scattered Clouds
2:33 AM 35.6 °F 29.9 °F 28.4 °F 75% 29.74 in 10.0 mi WNW 6.9 mph - N/A   Scattered Clouds
2:53 AM 35.6 °F 30.7 °F 30.2 °F 81% 29.74 in 10.0 mi NW 5.8 mph - N/A   Mostly Cloudy
3:13 AM 35.6 °F 30.7 °F 30.2 °F 81% 29.74 in 10.0 mi NW 5.8 mph - N/A   Mostly Cloudy
3:33 AM 35.6 °F 29.9 °F 32.0 °F 87% 29.73 in 10.0 mi NW 6.9 mph - N/A   Scattered Clouds
3:53 AM 35.6 °F 30.7 °F 32.0 °F 87% 29.73 in 10.0 mi NW 5.8 mph - N/A   Scattered Clouds
4:13 AM 33.8 °F 27.0 °F 32.0 °F 93% 29.73 in 10.0 mi WNW 8.1 mph - N/A   Scattered Clouds
4:33 AM 33.8 °F 26.4 °F 32.0 °F 93% 29.73 in 10.0 mi WNW 9.2 mph - N/A   Scattered Clouds
4:53 AM 33.8 °F 28.6 °F 32.0 °F 93% 29.73 in 10.0 mi WNW 5.8 mph - N/A   Scattered Clouds
5:13 AM 33.8 °F 27.0 °F 32.0 °F 93% 29.73 in 10.0 mi WNW 8.1 mph - N/A   Scattered Clouds
5:33 AM 33.8 °F 26.4 °F 32.0 °F 93% 29.73 in 10.0 mi NW 9.2 mph - N/A   Scattered Clouds
5:53 AM 33.8 °F 27.0 °F 32.0 °F 93% 29.74 in 7.0 mi NW 8.1 mph - N/A   Scattered Clouds
6:13 AM 33.8 °F 27.7 °F 30.2 °F 87% 29.73 in 7.0 mi NNW 6.9 mph - N/A Snow Light Snow
6:33 AM 32.0 °F 23.6 °F 30.2 °F 93% 29.75 in 10.0 mi North 10.4 mph - N/A   Overcast
6:53 AM 32.0 °F 25.6 °F 28.4 °F 87% 29.75 in 10.0 mi NNW 6.9 mph - N/A   Mostly Cloudy
7:13 AM 30.2 °F 24.3 °F 28.4 °F 93% 29.76 in 10.0 mi North 5.8 mph - N/A   Mostly Cloudy
7:33 AM 30.2 °F 23.4 °F 28.4 °F 93% 29.76 in 10.0 mi North 6.9 mph - N/A   Mostly Cloudy
7:53 AM 30.2 °F 21.9 °F 26.6 °F 86% 29.76 in 10.0 mi NNW 9.2 mph - N/A   Clear
8:13 AM 30.2 °F 21.3 °F 26.6 °F 86% 29.77 in 10.0 mi NNW 10.4 mph - N/A   Clear
8:33 AM 30.2 °F 21.3 °F 24.8 °F 80% 29.78 in 10.0 mi NNW 10.4 mph - N/A   Scattered Clouds
8:53 AM 30.2 °F 20.2 °F 24.8 °F 80% 29.79 in 10.0 mi NW 12.7 mph - N/A   Mostly Cloudy
9:13 AM 30.2 °F 20.8 °F 19.4 °F 64% 29.79 in 10.0 mi NW 11.5 mph - N/A   Overcast
9:33 AM 30.2 °F 20.2 °F 15.8 °F 55% 29.80 in 10.0 mi NNW 12.7 mph - N/A   Mostly Cloudy
9:53 AM 30.2 °F 20.2 °F 14.0 °F 51% 29.80 in 10.0 mi NNW 12.7 mph - N/A   Mostly Cloudy
10:13 AM 30.2 °F 20.2 °F 15.8 °F 55% 29.81 in 10.0 mi NNW 12.7 mph - N/A   Mostly Cloudy
10:33 AM 30.2 °F 21.3 °F 15.8 °F 55% 29.81 in 10.0 mi NW 10.4 mph - N/A   Scattered Clouds
10:53 AM 30.2 °F 21.3 °F 17.6 °F 60% 29.81 in 10.0 mi NNW 10.4 mph - N/A   Scattered Clouds
11:13 AM 30.2 °F 20.8 °F 14.0 °F 51% 29.81 in 10.0 mi North 11.5 mph - N/A   Clear
11:33 AM 33.8 °F 25.8 °F 12.2 °F 41% 29.81 in 10.0 mi NW 10.4 mph - N/A   Clear
11:53 AM 30.2 °F 21.3 °F 12.2 °F 47% 29.80 in 10.0 mi NNW 10.4 mph - N/A   Clear
12:13 PM 32.0 °F 23.6 °F 12.2 °F 44% 29.80 in 10.0 mi NW 10.4 mph - N/A   Clear
12:33 PM 32.0 °F 23.6 °F 10.4 °F 41% 29.80 in 10.0 mi NNW 10.4 mph - N/A   Clear
12:53 PM 32.0 °F 23.6 °F 10.4 °F 41% 29.79 in 10.0 mi North 10.4 mph - N/A   Clear
1:13 PM 32.0 °F 24.2 °F 10.4 °F 41% 29.79 in 10.0 mi NNW 9.2 mph - N/A   Clear
1:33 PM 33.8 °F 27.7 °F 10.4 °F 38% 29.79 in 10.0 mi NW 6.9 mph - N/A   Clear
1:53 PM 33.8 °F 27.0 °F 12.2 °F 41% 29.79 in 10.0 mi NNW 8.1 mph - N/A   Clear
2:13 PM 32.0 °F 24.2 °F 8.6 °F 38% 29.79 in 10.0 mi NW 9.2 mph - N/A   Clear
2:33 PM 32.0 °F 24.8 °F 8.6 °F 38% 29.78 in 10.0 mi NNW 8.1 mph - N/A   Clear
2:53 PM 30.2 °F 23.4 °F 10.4 °F 44% 29.78 in 10.0 mi North 6.9 mph - N/A   Clear
3:13 PM 30.2 °F 22.6 °F 10.4 °F 44% 29.79 in 10.0 mi North 8.1 mph - N/A   Clear
3:33 PM 30.2 °F 23.4 °F 10.4 °F 44% 29.79 in 10.0 mi NNW 6.9 mph - N/A   Clear
3:53 PM 30.2 °F 23.4 °F 10.4 °F 44% 29.79 in 10.0 mi NNW 6.9 mph - N/A   Clear
4:13 PM 30.2 °F 26.7 °F 10.4 °F 44% 29.79 in 10.0 mi North 3.5 mph - N/A   Clear
4:33 PM 28.4 °F 24.6 °F 12.2 °F 51% 29.79 in 10.0 mi NW 3.5 mph - N/A   Clear
4:53 PM 28.4 °F - 14.0 °F 55% 29.79 in 10.0 mi Calm Calm - N/A   Clear
5:12 PM 28.4 °F - 14.0 °F 55% 29.79 in 10.0 mi Calm Calm - N/A   Clear
5:33 PM 28.4 °F - 15.8 °F 59% 29.79 in 10.0 mi Calm Calm - N/A   Clear
5:53 PM 28.4 °F - 14.0 °F 55% 29.79 in 10.0 mi Calm Calm - N/A   Clear
6:13 PM 28.4 °F 24.6 °F 15.8 °F 59% 29.79 in 10.0 mi North 3.5 mph - N/A   Clear
6:33 PM 28.4 °F 23.3 °F 15.8 °F 59% 29.79 in 10.0 mi North 4.6 mph - N/A   Clear
6:53 PM 26.6 °F - 15.8 °F 64% 29.79 in 10.0 mi Calm Calm - N/A   Clear
7:13 PM 26.6 °F 22.6 °F 17.6 °F 69% 29.79 in 10.0 mi NNE 3.5 mph - N/A   Clear
7:33 PM 26.6 °F - 17.6 °F 69% 29.79 in 10.0 mi Calm Calm - N/A   Clear
7:53 PM 26.6 °F 22.6 °F 17.6 °F 69% 29.79 in 10.0 mi North 3.5 mph - N/A   Clear
8:13 PM 26.6 °F 21.2 °F 17.6 °F 69% 29.79 in 10.0 mi NNE 4.6 mph - N/A   Clear
8:33 PM 26.6 °F 18.2 °F 15.8 °F 64% 29.79 in 10.0 mi NNE 8.1 mph - N/A   Mostly Cloudy
8:53 PM 26.6 °F 18.2 °F 15.8 °F 64% 29.78 in 10.0 mi NNE 8.1 mph - N/A   Overcast
9:13 PM 26.6 °F 18.2 °F 17.6 °F 69% 29.78 in 10.0 mi NE 8.1 mph - N/A   Overcast
9:33 PM 26.6 °F 18.2 °F 17.6 °F 69% 29.79 in 10.0 mi NE 8.1 mph - N/A   Overcast
9:53 PM 26.6 °F 16.8 °F 17.6 °F 69% 29.78 in 10.0 mi NE 10.4 mph - N/A   Overcast
10:13 PM 26.6 °F 17.5 °F 17.6 °F 69% 29.78 in 10.0 mi NE 9.2 mph - N/A   Overcast
10:33 PM 26.6 °F 18.2 °F 15.8 °F 64% 29.78 in 10.0 mi NE 8.1 mph - N/A   Mostly Cloudy
10:53 PM 26.6 °F 16.8 °F 17.6 °F 69% 29.78 in 10.0 mi ENE 10.4 mph - N/A   Scattered Clouds
11:13 PM 26.6 °F 17.5 °F 17.6 °F 69% 29.79 in 10.0 mi NE 9.2 mph - N/A   Mostly Cloudy
11:33 PM 26.6 °F 19.1 °F 17.6 °F 69% 29.79 in 10.0 mi ENE 6.9 mph - N/A   Scattered Clouds
11:53 PM 26.6 °F 18.2 °F 17.6 °F 69% 29.79 in 10.0 mi NE 8.1 mph - N/A   Clear